Content
SEND FEEDBACK

Daily
Averages
Monthly
Summary
United States of America

BLACK HAWK, SOUTH DAKOTA


Home > North America > United States > South Dakota
Elevation: 3352 feet     Latitude: 44 05N     Longitude: 103 16W

WEATHER
 
SELECT A DAY
Number of Records: 209,823;   Date Range: 1/1/95 - 12/18/14
 
SHARE

PRINT THIS DATA

[ ← Previous Day ]
WEATHER ALMANAC - SEPTEMBER 18, 2013
[ Next Day → ]
[ °C ]   °F
Weather ElementAverageHighLow
Temperature75.1 °F91.4 °F (2:03 pm)58.6 °F (6:58 am)
Dewpoint47.9 °F52.7 °F (7:58 am)42.6 °F (11:58 pm)
Humidity42.9 %79 % (6:58 am)20 % (2:58 pm)
Barometer29.63 in29.81 in (11:58 pm)29.54 in (2:58 pm)
Wind Speed13.1 mph26.5 mph (4:20 pm)
Wind Gust35.7 mph (9:58 pm)
Weather ElementAverage
Visibility10 mi
Wind DirectionWSW (261.9 °)

Weather ElementTotal
Precipitation---
Cooling Degree Days10 (Base 65)
Growing Degree Days25 (Base 50)
Averaged from 37 records on September 18, 2013
WEATHER CONDITIONS BREAKOUT
WIND DIRECTION BREAKOUT
WEATHER BY HOUR - SEPTEMBER 18, 2013
[ °C ]   °F
Local TimeTemperatureDewpointHumidityBarometerVisibilityWind DirectionWind SpeedGust SpeedPrecipitationEventsConditions
12:25 AM68.0 °F48.2 °F49 %29.66 in10.0 miWSW (250°)6.9 mphMostly Cloudy
12:58 AM66.6 °F48.0 °F51 %29.59 in10.0 miWest (260°)2.3 mph0.00 inPartly Cloudy
1:58 AM67.6 °F48.9 °F51 %29.59 in10.0 miNNE (20°)1.2 mphClear
2:58 AM61.7 °F48.4 °F62 %29.59 in10.0 miSW (220°)4.6 mphClear
3:58 AM62.2 °F48.7 °F61 %29.57 in10.0 miWNW (290°)3.5 mphClear
4:58 AM63.0 °F52.3 °F68 %29.60 in10.0 miNorth (360°)15.0 mphPartly Cloudy
5:58 AM64.0 °F52.3 °F66 %29.61 in10.0 miNorth (350°)11.5 mphClear
6:58 AM58.6 °F52.0 °F79 %29.61 in10.0 miWest (270°)4.6 mphClear
7:58 AM59.9 °F52.7 °F77 %29.61 in10.0 miSW (220°)4.6 mphClear
8:27 AM62.6 °F51.8 °F68 %29.67 in10.0 miSW (230°)10.4 mphDrizzle
8:36 AM62.6 °F51.8 °F68 %29.68 in10.0 miSW (220°)8.1 mphClear
8:58 AM65.5 °F50.7 °F59 %29.62 in10.0 miCalmPartly Cloudy
9:58 AM75.2 °F51.8 °F44 %29.61 in10.0 miSSE (150°)10.4 mphPartly Cloudy
10:58 AM82.4 °F50.0 °F32 %29.58 in10.0 miSouth (180°)9.2 mphPartly Cloudy
11:58 AM86.9 °F49.3 °F27 %29.57 in10.0 miVariable5.8 mphPartly Cloudy
12:58 PM89.6 °F44.4 °F21 %29.55 in10.0 miWest (260°)12.7 mphPartly Cloudy
1:03 PM89.6 °F44.6 °F21 %29.63 in10.0 miWest (260°)15.0 mph23.0 mphClear
1:09 PM87.8 °F44.6 °F22 %29.63 in10.0 miWSW (250°)17.3 mph23.0 mphPartly Cloudy
1:58 PM90.3 °F44.8 °F21 %29.55 in10.0 miWest (260°)9.2 mphPartly Cloudy
2:03 PM91.4 °F46.4 °F21 %29.62 inWest (270°)13.8 mph25.3 mphPartly Cloudy
2:13 PM89.6 °F50.0 °F26 %29.62 in10.0 miNorth (350°)12.7 mph17.3 mphClear
2:54 PM89.6 °F46.4 °F22 %29.63 in10.0 miWest (280°)11.5 mph23.0 mphPartly Cloudy
2:58 PM89.6 °F42.8 °F20 %29.54 in10.0 miWest (270°)21.9 mph21.9 mphPartly Cloudy
3:09 PM89.6 °F42.8 °F20 %29.62 in10.0 miWSW (250°)12.7 mphPartly Cloudy
3:58 PM86.9 °F42.8 °F21 %29.55 in10.0 miWSW (250°)12.7 mph19.6 mphMostly Cloudy
4:17 PM87.8 °F46.4 °F24 %29.63 in10.0 miWest (270°)15.0 mphPartly Cloudy
4:20 PM86.0 °F44.6 °F23 %29.63 in10.0 miNW (310°)26.5 mph31.1 mphScattered Clouds
4:21 PM86.0 °F44.6 °F23 %29.63 in10.0 miNW (310°)26.5 mph31.1 mphScattered Clouds
4:25 PM84.2 °F44.6 °F25 %29.63 in10.0 miNW (320°)26.5 mph32.2 mphScattered Clouds
4:58 PM80.2 °F47.5 °F32 %29.60 in10.0 miNorth (360°)12.7 mphClear
5:58 PM72.7 °F51.3 °F47 %29.61 in10.0 miNorth (360°)24.2 mph29.9 mphClear
6:58 PM69.1 °F51.6 °F54 %29.65 in10.0 miNorth (360°)20.7 mphClear
7:58 PM67.3 °F52.7 °F59 %29.70 in10.0 miNorth (350°)15.0 mphClear
8:58 PM65.5 °F51.3 °F60 %29.73 in10.0 miNNW (330°)15.0 mphClear
9:58 PM61.3 °F45.1 °F55 %29.78 in10.0 miNNW (330°)23.0 mph35.7 mphClear
10:58 PM59.7 °F44.6 °F57 %29.77 in10.0 miNNW (330°)20.7 mphClear
11:58 PM59.7 °F42.6 °F53 %29.81 in10.0 miNNW (340°)21.9 mph28.8 mphClear
Hourly data recorded from KRCA, located miles away from Black Hawk, South Dakota







STORIES FROM OUR PARTNERS